Hourly Weather La Serena

Today, 23 October, Friday

Time Temperature Precipitation Wind Pressure Humidity
00:00 +14°C° 0 mm 1 mps 759 mmHg 84%
01:00 +14°C° 0 mm 1 mps 758 mmHg 85%
02:00 +14°C° 0 mm 1 mps 759 mmHg 86%
03:00 +13°C° 0 mm 1 mps 759 mmHg 88%
04:00 +13°C° 0 mm 1 mps 759 mmHg 89%
05:00 +14°C° 0 mm 1 mps 759 mmHg 83%
06:00 +16°C° 0 mm 1 mps 759 mmHg 77%
07:00 +18°C° 0 mm 1 mps 760 mmHg 71%
08:00 +19°C° 0 mm 2 mps 760 mmHg 65%
09:00 +20°C° 0 mm 2 mps 760 mmHg 60%
10:00 +22°C° 0 mm 3 mps 760 mmHg 54%
11:00 +22°C° 0 mm 3 mps 759 mmHg 54%
12:00 +22°C° 0 mm 4 mps 759 mmHg 53%
13:00 +23°C° 0 mm 4 mps 758 mmHg 53%
14:00 +22°C° 0 mm 4 mps 758 mmHg 55%
15:00 +21°C° 0 mm 4 mps 758 mmHg 58%
16:00 +20°C° 0 mm 4 mps 758 mmHg 61%
17:00 +19°C° 0 mm 3 mps 759 mmHg 67%
18:00 +17°C° 0 mm 2 mps 759 mmHg 74%
19:00 +15°C° 0 mm 2 mps 759 mmHg 81%
20:00 +15°C° 0 mm 2 mps 759 mmHg 82%
21:00 +15°C° 0 mm 2 mps 760 mmHg 83%
22:00 +14°C° 0 mm 2 mps 760 mmHg 83%
23:00 +14°C° 0 mm 1 mps 760 mmHg 84%

Tomorrow, 24 October, Saturday

Time Temperature Precipitation Wind Pressure Humidity
00:00 +14°C° 0 mm 1 mps 759 mmHg 85%
01:00 +13°C° 0 mm 1 mps 759 mmHg 85%
02:00 +12°C° 0 mm 0 mps 759 mmHg 87%
03:00 +12°C° 0 mm 0 mps 759 mmHg 89%
04:00 +11°C° 0 mm 0 mps 759 mmHg 91%
05:00 +14°C° 0 mm 1 mps 760 mmHg 83%
06:00 +16°C° 0 mm 1 mps 760 mmHg 75%
07:00 +18°C° 0 mm 2 mps 760 mmHg 68%
08:00 +19°C° 0 mm 2 mps 760 mmHg 63%
09:00 +20°C° 0 mm 3 mps 760 mmHg 59%
10:00 +21°C° 0 mm 3 mps 760 mmHg 55%
11:00 +21°C° 0 mm 3 mps 760 mmHg 55%
12:00 +21°C° 0 mm 3 mps 760 mmHg 56%
13:00 +21°C° 0 mm 4 mps 760 mmHg 56%
14:00 +20°C° 0 mm 4 mps 760 mmHg 60%
15:00 +19°C° 0 mm 4 mps 760 mmHg 63%
16:00 +18°C° 0 mm 4 mps 760 mmHg 66%
17:00 +17°C° 0 mm 3 mps 760 mmHg 73%
18:00 +16°C° 0 mm 3 mps 761 mmHg 80%
19:00 +14°C° 0 mm 2 mps 761 mmHg 87%
20:00 +14°C° 0 mm 2 mps 761 mmHg 88%
21:00 +14°C° 0 mm 1 mps 761 mmHg 89%
22:00 +13°C° 0 mm 1 mps 761 mmHg 90%
23:00 +13°C° 0 mm 1 mps 761 mmHg 90%

Day after tomorrow, 25 October, Sunday

Time Temperature Precipitation Wind Pressure Humidity
00:00 +13°C° 0 mm 1 mps 761 mmHg 90%
01:00 +12°C° 0 mm 1 mps 761 mmHg 90%
02:00 +12°C° 0 mm 1 mps 761 mmHg 90%
03:00 +12°C° 0 mm 1 mps 761 mmHg 90%
04:00 +11°C° 0 mm 1 mps 761 mmHg 90%
05:00 +13°C° 0 mm 1 mps 761 mmHg 83%
06:00 +15°C° 0 mm 1 mps 761 mmHg 76%
07:00 +17°C° 0 mm 2 mps 761 mmHg 69%
08:00 +19°C° 0 mm 2 mps 761 mmHg 59%
09:00 +21°C° 0 mm 3 mps 761 mmHg 49%
10:00 +24°C° 0 mm 3 mps 761 mmHg 39%
11:00 +23°C° 0 mm 4 mps 761 mmHg 38%
12:00 +25°C° 0 mm 5 mps 761 mmHg 36%
13:00 +26°C° 0 mm 6 mps 760 mmHg 35%
14:00 +24°C° 0 mm 6 mps 760 mmHg 40%
15:00 +23°C° 0 mm 6 mps 760 mmHg 46%
16:00 +21°C° 0 mm 6 mps 760 mmHg 51%
17:00 +20°C° 0 mm 5 mps 760 mmHg 56%
18:00 +19°C° 0 mm 4 mps 760 mmHg 62%
19:00 +17°C° 0 mm 3 mps 760 mmHg 67%
20:00 +17°C° 0 mm 2 mps 760 mmHg 67%
21:00 +17°C° 0 mm 2 mps 759 mmHg 66%
22:00 +17°C° 0 mm 2 mps 759 mmHg 65%
23:00 +16°C° 0 mm 2 mps 759 mmHg 69%

, 26 October, Monday

Time Temperature Precipitation Wind Pressure Humidity
00:00 +16°C° 0 mm 2 mps 759 mmHg 72%
01:00 +15°C° 0 mm 2 mps 758 mmHg 75%
02:00 +15°C° 0 mm 2 mps 758 mmHg 76%
03:00 +14°C° 0 mm 2 mps 758 mmHg 77%
04:00 +14°C° 0 mm 2 mps 758 mmHg 79%
05:00 +16°C° 0 mm 2 mps 758 mmHg 69%
06:00 +18°C° 0 mm 2 mps 758 mmHg 59%
07:00 +21°C° 0 mm 2 mps 759 mmHg 49%
08:00 +22°C° 0 mm 3 mps 759 mmHg 46%
09:00 +25°C° 0 mm 4 mps 759 mmHg 43%
10:00 +26°C° 0 mm 5 mps 759 mmHg 41%
11:00 +26°C° 0 mm 4 mps 758 mmHg 42%
12:00 +25°C° 0 mm 4 mps 758 mmHg 43%
13:00 +25°C° 0 mm 4 mps 758 mmHg 44%
14:00 +23°C° 0 mm 4 mps 758 mmHg 46%
15:00 +23°C° 0 mm 5 mps 758 mmHg 48%
16:00 +22°C° 0 mm 5 mps 758 mmHg 50%
17:00 +20°C° 0 mm 4 mps 758 mmHg 58%
18:00 +18°C° 0 mm 3 mps 758 mmHg 66%
19:00 +16°C° 0 mm 2 mps 759 mmHg 74%
20:00 +16°C° 0 mm 2 mps 759 mmHg 75%
21:00 +15°C° 0 mm 2 mps 759 mmHg 77%
22:00 +15°C° 0 mm 2 mps 759 mmHg 78%
23:00 +14°C° 0 mm 2 mps 759 mmHg 80%

26 October, Monday

Time Temperature Precipitation Wind Pressure Humidity
00:00 +16°C° 0 mm 2 mps 759 mmHg 72%
01:00 +15°C° 0 mm 2 mps 758 mmHg 75%
02:00 +15°C° 0 mm 2 mps 758 mmHg 76%
03:00 +14°C° 0 mm 2 mps 758 mmHg 77%
04:00 +14°C° 0 mm 2 mps 758 mmHg 79%
05:00 +16°C° 0 mm 2 mps 758 mmHg 69%
06:00 +18°C° 0 mm 2 mps 758 mmHg 59%
07:00 +21°C° 0 mm 2 mps 759 mmHg 49%
08:00 +22°C° 0 mm 3 mps 759 mmHg 46%
09:00 +25°C° 0 mm 4 mps 759 mmHg 43%
10:00 +26°C° 0 mm 5 mps 759 mmHg 41%
11:00 +26°C° 0 mm 4 mps 758 mmHg 42%
12:00 +25°C° 0 mm 4 mps 758 mmHg 43%
13:00 +25°C° 0 mm 4 mps 758 mmHg 44%
14:00 +23°C° 0 mm 4 mps 758 mmHg 46%
15:00 +23°C° 0 mm 5 mps 758 mmHg 48%
16:00 +22°C° 0 mm 5 mps 758 mmHg 50%
17:00 +20°C° 0 mm 4 mps 758 mmHg 58%
18:00 +18°C° 0 mm 3 mps 758 mmHg 66%
19:00 +16°C° 0 mm 2 mps 759 mmHg 74%
20:00 +16°C° 0 mm 2 mps 759 mmHg 75%
21:00 +15°C° 0 mm 2 mps 759 mmHg 77%
22:00 +15°C° 0 mm 2 mps 759 mmHg 78%
23:00 +14°C° 0 mm 2 mps 759 mmHg 80%

27 October, Tuesday

Time Temperature Precipitation Wind Pressure Humidity
00:00 +14°C° 0 mm 1 mps 759 mmHg 81%
01:00 +13°C° 0 mm 1 mps 759 mmHg 83%
02:00 +13°C° 0 mm 1 mps 759 mmHg 84%
03:00 +12°C° 0 mm 1 mps 759 mmHg 86%
04:00 +12°C° 0 mm 1 mps 759 mmHg 87%
05:00 +14°C° 0 mm 1 mps 759 mmHg 80%
06:00 +15°C° 0 mm 1 mps 759 mmHg 74%
07:00 +17°C° 0 mm 2 mps 760 mmHg 67%
08:00 +19°C° 0 mm 2 mps 760 mmHg 61%
09:00 +20°C° 0 mm 3 mps 760 mmHg 56%
10:00 +21°C° 0 mm 3 mps 760 mmHg 50%
11:00 +21°C° 0 mm 3 mps 759 mmHg 51%
12:00 +21°C° 0 mm 3 mps 759 mmHg 53%
13:00 +21°C° 0 mm 4 mps 759 mmHg 54%
14:00 +21°C° 0 mm 4 mps 759 mmHg 55%
15:00 +20°C° 0 mm 4 mps 759 mmHg 57%
16:00 +20°C° 0 mm 4 mps 758 mmHg 58%
17:00 +18°C° 0 mm 4 mps 759 mmHg 65%
18:00 +17°C° 0 mm 3 mps 759 mmHg 72%
19:00 +16°C° 0 mm 2 mps 759 mmHg 79%
20:00 +16°C° 0 mm 2 mps 760 mmHg 76%
21:00 +16°C° 0 mm 2 mps 760 mmHg 73%
22:00 +16°C° 0 mm 1 mps 760 mmHg 70%
23:00 +15°C° 0 mm 1 mps 759 mmHg 75%

28 October, Wednesday

Time Temperature Precipitation Wind Pressure Humidity
00:00 +14°C° 0 mm 1 mps 759 mmHg 80%
01:00 +14°C° 0 mm 2 mps 759 mmHg 85%
02:00 +13°C° 0 mm 2 mps 759 mmHg 85%
03:00 +13°C° 0 mm 2 mps 759 mmHg 86%
04:00 +13°C° 0 mm 2 mps 759 mmHg 86%
05:00 +15°C° 0 mm 2 mps 759 mmHg 77%
06:00 +17°C° 0 mm 2 mps 759 mmHg 67%
07:00 +19°C° 0 mm 2 mps 759 mmHg 57%
08:00 +20°C° 0 mm 2 mps 759 mmHg 54%
09:00 +22°C° 0 mm 3 mps 759 mmHg 51%
10:00 +24°C° 0 mm 3 mps 758 mmHg 48%
11:00 +23°C° 0 mm 4 mps 758 mmHg 47%
12:00 +23°C° 0 mm 4 mps 758 mmHg 47%
13:00 +25°C° 0 mm 5 mps 757 mmHg 46%
14:00 +23°C° 0 mm 4 mps 757 mmHg 49%
15:00 +22°C° 0 mm 4 mps 757 mmHg 52%
16:00 +21°C° 0 mm 4 mps 757 mmHg 54%
17:00 +19°C° 0 mm 3 mps 757 mmHg 62%
18:00 +17°C° 0 mm 3 mps 757 mmHg 71%
19:00 +16°C° 0 mm 2 mps 758 mmHg 79%
20:00 +15°C° 0 mm 2 mps 758 mmHg 80%
21:00 +15°C° 0 mm 1 mps 758 mmHg 81%
22:00 +15°C° 0 mm 1 mps 758 mmHg 82%
23:00 +14°C° 0 mm 1 mps 758 mmHg 83%
Show more

We Need Your Consent

Meteoprog and our Service Providers may store and access personal data such as cookies, device identifiers or other similar technologies on your device and process such data to personalise content and ads, as well as provide social media features and to analyse the traffic.

  • Store and/or access information on your device

    Cookies, device identifiers or other information can be stored or accessed on your device for the purposes indicated above.

  • Personalised ads and content, ad and content measurement, audience insights, and products development

    Ads and content can be personalised based on a profile. More data can be added to better personalise ads and content. Ad and content performance can be measured. Insights about the audience who saw the ads and content can be derived. Such data can be used to develop or improve user’s experience, systems and software.

By clicking ‘I Agree’ you will allow the use of indicated cookies, device identifiers, web beacons or other similar technologies. Your settings can be changed in the browser on your device.

For certain purposes, legitimate interests may be relied on, rather than consent. You can read more about this in our Privacy and Cookie Policy.